Weather History for Estherville, IA

Change the Weather History Date:

Tuesday, November 26, 2013

  Actual Average Record
Temperature  
Mean Temperature 21 °F 27 °F  
Max Temperature 33 °F 36 °F 64 °F (1998)
Min Temperature 9 °F 18 °F -12 °F (1977)
Degree Days  
Heating Degree Days 44 38  
Month to date heating degree days 818 812  
Since 1 July heating degree days 1481 1561  
Cooling Degree Days 0 0  
Month to date cooling degree days 0 0  
Year to date cooling degree days 712 593  
Moisture  
Dew Point 10 °F    
Average Humidity 59    
Maximum Humidity 76    
Minimum Humidity 42    
Precipitation  
Precipitation 0.00 in 0.05 in 1.17 in (2001)
Month to date precipitation 0.38 1.47  
Sea Level Pressure  
Sea Level Pressure 30.31 in    
Wind  
Wind Speed 20 mph (NNW)    
Max Wind Speed 31 mph    
Max Gust Speed 39 mph    
Visibility 10 miles    
Events      
T = Trace of Precipitation, MM = Missing Value Source: NWS Daily Summary

Daily Weather History Graph

Daily Weather History Graph

Search for Another Location

Airport:

Trip Planner

Search our weather history database for the weather conditions in past years. The results will help you decide how hot, cold, wet, or windy it might be!

Date:

Astronomy

Nov. 26, 2013 Rise Set
Actual Time 7:26 AM CST 4:46 PM CST
Civil Twilight 6:54 AM CST 5:17 PM CST
Nautical Twilight 6:19 AM CST 5:53 PM CST
Astronomical Twilight 5:45 AM CST 6:27 PM CST
Moon 12:19 AM CST (11/26) 1:03 PM CST (11/26)
Length of Visible Light 10h 23m
Length of Day
9h 19m
Last Quarter, 41% of the Moon is Illuminated
Nov 26
Last Quarter
Dec 2
New
Dec 9
First Quarter
Dec 17
Full
Dec 25
Last Quarter

Hourly Weather History & Observations

Time (CST) Temp. Windchill Dew Point Humidity Pressure Visibility Wind Dir Wind Speed Gust Speed Precip Events Conditions
12:52 AM 32.0 °F 21.2 °F 21.9 °F 66% 30.15 in 10.0 mi NNW 16.1 mph - N/A   Overcast
1:13 AM 32.0 °F 20.5 °F 21.0 °F 64% 30.11 in 10.0 mi NNW 18.4 mph - N/A   Overcast
1:52 AM 30.9 °F 20.2 °F 21.0 °F 67% 30.15 in 10.0 mi NNW 15.0 mph - N/A   Overcast
2:52 AM 30.0 °F 17.5 °F 21.0 °F 69% 30.18 in 10.0 mi NNW 19.6 mph 25.3 mph N/A   Overcast
3:52 AM 28.0 °F 13.3 °F 19.0 °F 69% 30.19 in 10.0 mi NNW 25.3 mph 29.9 mph N/A   Overcast
4:52 AM 26.1 °F 12.0 °F 16.0 °F 66% 30.21 in 10.0 mi NNW 20.7 mph 28.8 mph N/A   Overcast
5:52 AM 25.0 °F 9.2 °F 15.1 °F 66% 30.24 in 10.0 mi NNW 25.3 mph 35.7 mph N/A   Overcast
6:43 AM 21.0 °F 4.3 °F 9.0 °F 60% 30.22 in 10.0 mi NNW 24.2 mph 32.2 mph N/A   Mostly Cloudy
6:52 AM 19.9 °F 4.3 °F 9.0 °F 62% 30.28 in 10.0 mi NNW 19.6 mph 29.9 mph N/A   Scattered Clouds
7:52 AM 19.0 °F 2.0 °F 10.0 °F 68% 30.31 in 10.0 mi NNW 23.0 mph - N/A   Clear
8:52 AM 19.9 °F 3.2 °F 10.0 °F 65% 30.34 in 10.0 mi NNW 23.0 mph 28.8 mph N/A   Clear
9:52 AM 21.0 °F 4.3 °F 9.0 °F 60% 30.36 in 10.0 mi NNW 24.2 mph 32.2 mph N/A   Scattered Clouds
10:52 AM 23.0 °F 6.9 °F 8.1 °F 53% 30.36 in 10.0 mi NNW 24.2 mph 33.4 mph N/A   Mostly Cloudy
11:52 AM 24.1 °F 6.9 °F 5.0 °F 44% 30.35 in 10.0 mi NNW 29.9 mph 35.7 mph N/A   Clear
12:52 PM 25.0 °F 8.9 °F 5.0 °F 43% 30.33 in 10.0 mi NNW 26.5 mph 34.5 mph N/A   Clear
1:52 PM 26.1 °F 11.3 °F 6.1 °F 43% 30.33 in 10.0 mi NNW 23.0 mph 38.0 mph N/A   Partly Cloudy
2:52 PM 25.0 °F 8.9 °F 6.1 °F 45% 30.33 in 10.0 mi NNW 26.5 mph 36.8 mph N/A   Clear
3:52 PM 24.1 °F 9.0 °F 6.1 °F 46% 30.35 in 10.0 mi NNW 21.9 mph 34.5 mph N/A   Partly Cloudy
4:52 PM 21.9 °F 6.5 °F 6.1 °F 51% 30.37 in 10.0 mi NNW 20.7 mph 27.6 mph N/A   Clear
5:52 PM 19.9 °F 4.3 °F 6.1 °F 55% 30.38 in 10.0 mi NNW 19.6 mph - N/A   Clear
6:52 PM 19.0 °F 4.5 °F 6.1 °F 57% 30.39 in 10.0 mi NNW 16.1 mph - N/A   Clear
7:52 PM 17.1 °F 3.6 °F 7.0 °F 65% 30.41 in 10.0 mi North 12.7 mph - N/A   Clear
8:52 PM 16.0 °F 0.6 °F 7.0 °F 68% 30.42 in 10.0 mi North 16.1 mph - N/A   Clear
9:52 PM 14.0 °F 0.5 °F 6.1 °F 71% 30.43 in 10.0 mi North 11.5 mph - N/A   Clear
10:52 PM 12.0 °F 0.5 °F 6.1 °F 77% 30.43 in 10.0 mi North 8.1 mph - N/A   Clear
11:52 PM 10.0 °F -1.9 °F 3.9 °F 76% 30.44 in 10.0 mi NNW 8.1 mph - N/A   Clear